Overview Statistics Trail Chart Weather Telemetry Raw packets
 

This is the latest recevied weather packets stored in our database for station/object N3EG. If no packets are shown the sender has not sent any weather packets the latest 10 day(s).

<< 2 3 4 5 6 7 8 >>
Time Temp. Humidity Pressure Rain* Wind** Luminosity Snow
1788653403 22.78° C 52% 1015.9 hPa 0 mm - - -
1788653103 22.78° C 53% 1016 hPa 0 mm - - -
1788652802 22.78° C 52% 1015.9 hPa 0 mm - - -
1788652503 22.22° C 54% 1015.9 hPa 0 mm - - -
1788652203 22.22° C 55% 1015.8 hPa 0 mm - - -
1788651902 21.67° C 58% 1016 hPa 0 mm - - -
1788651603 21.67° C 59% 1015.9 hPa 0 mm - - -
1788651302 21.67° C 58% 1015.9 hPa 0 mm - - -
1788651003 21.67° C 55% 1016 hPa 0 mm - - -
1788650703 21.67° C 58% 1016 hPa 0 mm - - -
1788650402 21.67° C 59% 1016 hPa 0 mm - - -
1788650103 21.67° C 58% 1016 hPa 0 mm - - -
1788649803 21.67° C 57% 1016.1 hPa 0 mm - - -
1788649502 21.67° C 59% 1016.1 hPa 0 mm - - -
1788649203 21.67° C 59% 1016 hPa 0 mm - - -
1788648903 21.67° C 58% 1016.1 hPa 0 mm - - -
1788648602 21.67° C 59% 1016.2 hPa 0 mm - - -
1788648303 21.67° C 60% 1016.2 hPa 0 mm - - -
1788648003 21.67° C 60% 1016.2 hPa 0 mm - - -
1788647702 21.67° C 62% 1016.3 hPa 0 mm - - -
1788647403 21.67° C 62% 1016.2 hPa 0 mm - - -
1788647102 21.67° C 61% 1016.2 hPa 0 mm - - -
1788646803 21.67° C 61% 1016.2 hPa 0 mm - - -
1788646503 21.67° C 62% 1016.3 hPa 0 mm - - -
1788646202 21.67° C 62% 1016.3 hPa 0 mm - - -

* Rain latest hour (hover to see other rain measurements)
** Current wind speed in m/s (hover to see current wind gust speed)